Preview of NWS' New Version of Forecast
This preview is not operational and should not be used for support decisions.

Regional Weather Roundup (RWR)

Issued by National Weather Service (NWS)

                            
000
ASUS46 KSEW 190310
RWRWA 

WASHINGTON REGIONAL WEATHER ROUNDUP
NATIONAL WEATHER SERVICE SEATTLE WA
700 PM PST MON FEB 18 2019

NOTE:"FAIR" INDICATES FEW OR NO CLOUDS BELOW 12,000 FEET WITH NO 
SIGNIFICANT WEATHER AND/OR OBSTRUCTIONS TO VISIBILITY.

WAZ507-509-555>559-190400-
SEATTLE, TACOMA, EVERETT, AND VICINITY
  
CITY           SKY/WX    TMP DP  RH WIND       PRES   REMARKS
EVERETT        LGT RAIN  38  35  89 E5        30.35R                  
BOEING FIELD   MOCLDY    41  36  82 CALM      30.36R                  
RENTON         CLOUDY    41  35  79 CALM      30.35S                  
SEATAC AIRPORT MOCLDY    41  33  73 E3        30.34S                  
JBLM-MCCHORD   CLOUDY    37  37 100 S6        30.35R                  
PUYALLUP       MOCLDY    36  36 100 CALM      30.34S                  
BREMERTON      MIX PCPN  36  34  92 CALM      30.34S                  
JBLM-FT LEWIS  NOT AVBL                                               
TACOMA NARROWS MOCLDY    41  34  76 S5        30.35R                  
$$
 
WAZ001-503-506-510-514-515-190400-
NORTH INTERIOR
  
CITY           SKY/WX    TMP DP  RH WIND       PRES   REMARKS
BELLINGHAM     CLOUDY    33  21  61 N3        30.36R                  
FRIDAY HARBOR  CLOUDY    40  31  70 CALM      30.36S                  
EASTSOUND      CLOUDY    37  32  81 CALM      30.36S                  
PORT ANGELES   CLOUDY    36  32  85 S3        30.36R                  
EDIZ HOOK      CLOUDY    41  34  77 S3        30.36S                  
PORT TOWNSEND  CLOUDY    39  37  93 CALM      30.35S                  
NAS WHIDBEY    CLOUDY    41  33  73 SE6       30.40S                  
ARLINGTON      CLOUDY    35  31  85 CALM      30.37R                  
BURLINGTON     CLOUDY    36  25  64 CALM      30.37S                  
$$
 
WAZ020-022-039-040-504-511-512-190400-
SOUTHWEST INTERIOR
  
CITY           SKY/WX    TMP DP  RH WIND       PRES   REMARKS
SHELTON        CLEAR     37  32  82 W3        30.32S                  
OLYMPIA        CLOUDY    39  35  86 S5        30.36R                  
CHEHALIS       CLOUDY    41  39  93 CALM      30.37R                  
KELSO          CLOUDY    40  37  89 SE7       30.39S                  
VANCOUVER      CLOUDY    41  35  79 CALM      30.39R                  
SCAPPOOSE, OR  LGT RAIN  41  37  86 CALM      30.39R                  
PORTLAND, OR   CLOUDY    42  34  73 SE3       30.39S                  
$$
 
WAZ021-516-517-190400-
WASHINGTON COAST
  
CITY           SKY/WX    TMP DP  RH WIND       PRES   REMARKS
FORKS          CLOUDY    39  36  89 CALM      30.35S                  
HOQUIAM        LGT RAIN  42  39  89 SW8       30.37R                  
ASTORIA, OR    CLOUDY    42  38  85 CALM      30.37S                  
$$
 
WAZ019-023-024-040-567>569-190400-
CASCADE MOUNTAINS AND COLUMBIA GORGE
  
CITY           SKY/WX    TMP DP  RH WIND       PRES   REMARKS
STAMPEDE PASS  CLOUDY    26  23  88 VRB6      30.17F FOG              
TROUTDALE, OR  CLOUDY    40  35  83 CALM      30.39S                  
HOOD RIVER, OR CLOUDY    37  30  75 NW8       30.33F                  
THE DALLES, OR CLEAR     32  26  78 E6        30.34S                  
$$

WAZ026-027-041>044-520-521-190400-
EAST SLOPES
  
CITY           SKY/WX    TMP DP  RH WIND       PRES   REMARKS
OMAK           CLOUDY    24  14  65 S6        30.29R                  
WENATCHEE      PTCLDY    20  12  71 E3        30.29F                  
ELLENSBURG     CLEAR     21  14  74 E8        30.25S                  
YAKIMA         CLEAR     24  19  81 CALM      30.31R                  
SUNNYSIDE ARPT CLEAR     22  19  87 CALM      30.32                   
YAKIMA TC      FAIR      25  19  80 CALM      30.26F                  
$$

WAZ028-034-035-190400-
COLUMBIA BASIN
  
CITY           SKY/WX    TMP DP  RH WIND       PRES   REMARKS
EPHRATA        MOCLDY    16  10  77 CALM      30.29F                  
MOSES LAKE     PTCLDY   N/A N/A N/A CALM      30.31F                  
PASCO          PTCLDY    25  21  85 NW9       30.36R                  
RICHLAND ARPT  CLEAR     26  20  79 W8        30.36F                  
HERMISTON, OR  CLOUDY    33  26  75 CALM      30.31S                  
$$

WAZ036>038-190400-
NORTHEAST WASHINGTON
  
CITY           SKY/WX    TMP DP  RH WIND       PRES   REMARKS
SPOKANE GEIGER CLOUDY    15   7  70 S5        30.23F                  
SPOKANE FELTS  PTCLDY    17  12  80 CALM      30.27F                  
FAIRCHILD AFB  MOCLDY    17   9  71 CALM      30.22F                  
COEURDALENE,ID CLEAR     13   6  74 CALM      30.24F                  
DEER PARK      CLOUDY    10   5  80 CALM      30.25S                  
$$

WAZ029>033-190400-
SOUTHEAST WASHINGTON
  
CITY           SKY/WX    TMP DP  RH WIND       PRES   REMARKS
PULLMAN        CLOUDY    20  14  77 SE5       30.25S                  
LEWISTON, ID   FLURRIES  27  19  72 E3        30.31F                  
WALLA WALLA    CLOUDY    32  21  64 S6        30.29F                  
PENDLETON, OR  MOCLDY    29  24  82 E5        30.27S                  
$$